Regional Weather Roundup
Issued by NWS

Home | Current Version | Previous Version | Text Only | Print | Product List | Glossary On
Versions: 1 2 3 4 5 6 7 8 9 10 11 12 13 14 15 16 17 18 19 20 21 22 23 24 25 26 27 28 29 30 31 32 33 34 35 36 37 38 39 40 41 42 43 44 45 46 47 48 49 50
000
ASUS43 KTOP 271608
RWRKS

WEATHER ROUNDUP FOR KANSAS
NATIONAL WEATHER SERVICE GOODLAND KS
1100 AM CDT MON MAR 27 2017

NOTE:  "FAIR" INDICATES FEW OR NO CLOUDS BELOW 12,000 FEET WITH NO
SIGNIFICANT WEATHER AND/OR OBSTRUCTIONS TO VISIBILITY.

KSZ001>006-013>018-027>032-041>047-271700-
NORTHWEST KANSAS

CITY           SKY/WX    TMP DP  RH WIND       PRES   REMARKS
GOODLAND       SUNNY     51  42  71 W5        29.96S
HAYS             N/A     49  43  80 NE5       29.99S
HILL CITY      CLOUDY    44  44 100 SE5       29.99S FOG
RUSSELL        PTSUNNY   51  43  74 NE7       29.97S
$$

KSZ061>065-074>080-084>089-271700-
SOUTHWEST KANSAS

CITY           SKY/WX    TMP DP  RH WIND       PRES   REMARKS
DODGE CITY     MOSUNNY   50  43  77 VRB3      30.01R
ELKHART          N/A     52  37  56 E5          N/A
GARDEN CITY    SUNNY     50  41  71 S5        29.99S
GREAT BEND     CLOUDY    51  43  74 NE9       29.99R
LIBERAL        SUNNY     54  43  66 NE5       30.01F
PRATT          CLOUDY    47  42  80 N10       29.98S
$$

KSZ066>073-081>083-090>101-271700-
SOUTHEAST KANSAS

CITY           SKY/WX    TMP DP  RH WIND       PRES   REMARKS
CHANUTE        CLOUDY    49  46  90 NW10      29.91R
COFFEYVILLE    CLOUDY    51  48  89 NW16      29.92R
HUTCHINSON     CLOUDY    49  45  86 N10       29.97R
MEDICINE LODGE   N/A     50  43  77 N14       29.98R
NEWTON         CLOUDY    47  44  90 N15       29.96R
PARSONS        CLOUDY    50  48  93 NW10      29.93R FOG
WICHITA INTL   CLOUDY    49  45  86 N14       29.95R
WICHITA JABRA  CLOUDY    48  45  89 N14       29.95R
WICHITA MCCONL CLOUDY    48  44  84 N14       29.95R
WINFIELD       CLOUDY    52  46  80 NW15      29.95R
$$

KSZ007>012-019>026-033>040-048>060-102>105-271700-
NORTHEAST KANSAS

CITY           SKY/WX    TMP DP  RH WIND       PRES   REMARKS
CONCORDIA      CLOUDY    48  46  93 NE9       29.97F
EMPORIA        CLOUDY    48  46  93 N14       29.94R
LAWRENCE       CLOUDY    49  47  93 NW7       29.94R
MANHATTAN      CLOUDY    48  45  89 N7        29.97R
MARYSVILLE     CLOUDY    46  45  93 N6        29.98R FOG
OLATHE IND     CLOUDY    48  46  93 N10       29.91R
OLATHE EXE     CLOUDY    48  47  96 N12       29.90R
SALINA         CLOUDY    51  46  83 N9        29.98R
TOPEKA BILLARD CLOUDY    48  47  96 NW10      29.96R
TOPEKA FORBES  CLOUDY    49  46  90 N10       29.95R
$$



USA.gov is the U.S. government's official web portal to all federal, state and local government web resources and services.